Weather History for KNCA - December, 2014

Change the Weather History Date:

Thursday, December 11, 2014

  Actual Average Record
Temperature  
Mean Temperature 40 °F -  
Max Temperature 50 °F 57 °F 77 °F (2007)
Min Temperature 30 °F 37 °F 28 °F (2006)
Degree Days  
Heating Degree Days 25    
Moisture  
Dew Point 26 °F    
Average Humidity 65    
Maximum Humidity 85    
Minimum Humidity 36    
Precipitation  
Precipitation 0.00 in - - ()
Sea Level Pressure  
Sea Level Pressure 30.06 in    
Wind  
Wind Speed 7 mph (West)    
Max Wind Speed 14 mph    
Max Gust Speed -    
Visibility 10 miles    
Events      
Averages and records for this station are not official NWS values.
T = Trace of Precipitation, MM = Missing Value Source: NWS Daily Summary

Daily Weather History Graph

Daily Weather History Graph

Search for Another Location

Airport or City:

Trip Planner

Search our weather history database for the weather conditions in past years. The results will help you decide how hot, cold, wet, or windy it might be!

Date:

Astronomy

Dec. 11, 2014 Rise Set
Actual Time 7:06 AM EST 4:59 PM EST
Civil Twilight 6:38 AM EST 5:27 PM EST
Nautical Twilight 6:07 AM EST 5:58 PM EST
Astronomical Twilight 5:36 AM EST 6:29 PM EST
Moon 9:59 PM EST (12/11) 10:37 AM EST (12/11)
Length of Visible Light 10h 48m
Length of Day
9h 52m
Waning Gibbous, 75% of the Moon is Illuminated
Dec 11
Waning Gibbous
Dec 14
Last Quarter
Dec 21
New
Dec 28
First Quarter
Jan 4
Full

Hourly Weather History & Observations

Time (EST) Temp. Windchill Dew Point Humidity Pressure Visibility Wind Dir Wind Speed Gust Speed Precip Events Conditions
12:56 AM 35.1 °F 30.1 °F 28.0 °F 76% 30.00 in 10.0 mi West 5.8 mph - N/A   Clear
1:56 AM 34.0 °F 28.0 °F 28.0 °F 79% 30.01 in 10.0 mi West 6.9 mph - N/A   Clear
2:56 AM 33.1 °F 27.7 °F 27.0 °F 78% 30.02 in 10.0 mi West 5.8 mph - N/A   Clear
3:56 AM 32.0 °F 24.8 °F 26.1 °F 79% 30.02 in 10.0 mi West 8.1 mph - N/A   Clear
4:56 AM 30.9 °F 24.3 °F 26.1 °F 82% 30.03 in 10.0 mi West 6.9 mph - N/A   Clear
5:56 AM 30.0 °F 23.2 °F 25.0 °F 82% 30.04 in 10.0 mi West 6.9 mph - N/A   Clear
7:56 AM 32.0 °F 25.6 °F 26.1 °F 79% 30.07 in 10.0 mi West 6.9 mph - N/A   Clear
8:56 AM 36.0 °F 28.5 °F 26.1 °F 67% 30.09 in 10.0 mi West 10.4 mph - N/A   Partly Cloudy
9:56 AM 41.0 °F 34.7 °F 24.1 °F 51% 30.09 in 10.0 mi WNW 10.4 mph - N/A   Clear
10:56 AM 44.1 °F 38.1 °F 25.0 °F 47% 30.10 in 10.0 mi West 11.5 mph - N/A   Clear
11:56 AM 45.0 °F 38.9 °F 21.9 °F 40% 30.06 in 10.0 mi NW 12.7 mph - N/A   Clear
12:56 PM 46.9 °F - 23.0 °F 39% 30.04 in 10.0 mi West 12.7 mph - N/A   Clear
1:56 PM 48.9 °F - 24.1 °F 38% 30.02 in 10.0 mi West 13.8 mph - N/A   Clear
2:56 PM 50.0 °F - 24.1 °F 36% 30.01 in 10.0 mi West 10.4 mph - N/A   Clear
3:56 PM 48.9 °F - 25.0 °F 39% 30.02 in 10.0 mi West 8.1 mph - N/A   Clear
4:56 PM 45.0 °F 41.2 °F 26.1 °F 48% 30.04 in 10.0 mi West 6.9 mph - N/A   Clear
5:56 PM 41.0 °F 38.0 °F 28.0 °F 60% 30.07 in 10.0 mi West 4.6 mph - N/A   Clear
6:56 PM 37.0 °F 32.4 °F 28.9 °F 73% 30.09 in 10.0 mi West 5.8 mph - N/A   Clear
7:56 PM 35.1 °F 30.1 °F 28.0 °F 76% 30.10 in 10.0 mi WNW 5.8 mph - N/A   Clear
8:56 PM 33.1 °F 27.7 °F 28.0 °F 82% 30.10 in 10.0 mi West 5.8 mph - N/A   Clear
9:56 PM 30.9 °F - 27.0 °F 85% 30.11 in 10.0 mi Calm Calm - N/A   Clear
10:56 PM 33.1 °F 28.7 °F 26.1 °F 75% 30.12 in 10.0 mi WSW 4.6 mph - N/A   Clear
11:56 PM 30.0 °F - 25.0 °F 82% 30.13 in 10.0 mi Calm Calm - N/A   Clear